Time,TemperatureF,DewpointF,PressureIn,WindDirection,WindDirectionDegrees,WindSpeedMPH,WindSpeedGustMPH,Humidity,HourlyPrecipIn,Conditions,Clouds,dailyrainin,SoftwareType,DateUTC
2013-07-10 00:01:00,80.5,70.7,30.07,North,0,0.0,0.0,72,0.00,,,0.00,WUHU216HW,2013-07-10 04:01:00,
2013-07-10 00:06:00,80.5,70.7,30.07,North,0,0.0,0.0,72,0.00,,,0.00,WUHU216HW,2013-07-10 04:06:00,
2013-07-10 00:11:00,80.3,70.5,30.06,North,0,0.0,0.0,72,0.00,,,0.00,WUHU216HW,2013-07-10 04:11:00,
2013-07-10 00:16:00,80.3,70.8,30.07,North,0,0.0,0.0,73,0.00,,,0.00,WUHU216HW,2013-07-10 04:16:00,
2013-07-10 00:21:00,80.1,70.7,30.06,North,0,0.0,0.0,73,0.00,,,0.00,WUHU216HW,2013-07-10 04:21:00,
2013-07-10 00:26:00,79.9,70.5,30.06,North,0,0.0,0.0,73,0.00,,,0.00,WUHU216HW,2013-07-10 04:26:00,
2013-07-10 00:31:00,79.9,70.5,30.06,North,0,0.0,0.0,73,0.00,,,0.00,WUHU216HW,2013-07-10 04:31:00,
2013-07-10 00:36:00,79.9,70.9,30.06,North,0,0.0,0.0,74,0.00,,,0.00,WUHU216HW,2013-07-10 04:36:00,
2013-07-10 00:41:00,79.9,70.9,30.05,North,0,0.0,0.0,74,0.00,,,0.00,WUHU216HW,2013-07-10 04:41:00,
2013-07-10 00:46:00,79.9,70.9,30.05,North,0,0.0,0.0,74,0.00,,,0.00,WUHU216HW,2013-07-10 04:46:00,
2013-07-10 00:51:00,79.7,70.8,30.05,North,0,0.0,0.0,74,0.00,,,0.00,WUHU216HW,2013-07-10 04:51:00,
2013-07-10 00:56:00,79.7,71.1,30.05,North,0,0.0,0.0,75,0.00,,,0.00,WUHU216HW,2013-07-10 04:56:00,
2013-07-10 01:01:00,79.6,70.9,30.05,North,0,0.0,0.0,75,0.00,,,0.00,WUHU216HW,2013-07-10 05:01:00,
2013-07-10 01:06:00,79.6,70.9,30.05,North,0,0.0,0.0,75,0.00,,,0.00,WUHU216HW,2013-07-10 05:06:00,
2013-07-10 01:11:00,79.6,70.9,30.05,North,0,0.0,0.0,75,0.00,,,0.00,WUHU216HW,2013-07-10 05:11:00,
2013-07-10 01:16:00,79.4,70.7,30.05,North,0,0.0,0.0,75,0.00,,,0.00,WUHU216HW,2013-07-10 05:16:00,
2013-07-10 01:21:00,79.2,70.6,30.05,North,0,0.0,0.0,75,0.00,,,0.00,WUHU216HW,2013-07-10 05:21:00,
2013-07-10 01:26:00,79.2,70.9,30.05,North,0,0.0,0.0,76,0.00,,,0.00,WUHU216HW,2013-07-10 05:26:00,
2013-07-10 01:31:00,79.2,70.9,30.05,North,0,0.0,0.0,76,0.00,,,0.00,WUHU216HW,2013-07-10 05:31:00,
2013-07-10 01:36:00,79.2,70.9,30.05,North,0,0.0,0.0,76,0.00,,,0.00,WUHU216HW,2013-07-10 05:36:00,
2013-07-10 01:41:00,79.2,70.9,30.05,North,0,0.0,0.0,76,0.00,,,0.00,WUHU216HW,2013-07-10 05:41:00,
2013-07-10 01:46:00,79.2,71.4,30.05,North,0,0.0,0.0,77,0.00,,,0.00,WUHU216HW,2013-07-10 05:46:00,
2013-07-10 01:51:00,79.0,71.2,30.05,North,0,0.0,0.0,77,0.00,,,0.00,WUHU216HW,2013-07-10 05:51:00,
2013-07-10 01:56:00,79.0,71.2,30.05,North,0,0.0,0.0,77,0.00,,,0.00,WUHU216HW,2013-07-10 05:56:00,
2013-07-10 02:01:00,78.8,71.0,30.05,North,0,0.0,0.0,77,0.00,,,0.00,WUHU216HW,2013-07-10 06:01:00,
2013-07-10 02:06:00,78.8,71.4,30.05,North,0,0.0,0.0,78,0.00,,,0.00,WUHU216HW,2013-07-10 06:06:00,
2013-07-10 02:11:00,78.7,71.2,30.05,North,0,0.0,0.0,78,0.00,,,0.00,WUHU216HW,2013-07-10 06:11:00,
2013-07-10 02:16:00,78.7,71.2,30.05,North,0,0.0,0.0,78,0.00,,,0.00,WUHU216HW,2013-07-10 06:16:00,
2013-07-10 02:21:00,78.5,71.0,30.05,North,0,0.0,0.0,78,0.00,,,0.00,WUHU216HW,2013-07-10 06:21:00,
2013-07-10 02:26:00,78.5,71.0,30.05,North,0,0.0,0.0,78,0.00,,,0.00,WUHU216HW,2013-07-10 06:26:00,
2013-07-10 02:31:00,78.5,71.0,30.05,North,0,0.0,0.0,78,0.00,,,0.00,WUHU216HW,2013-07-10 06:31:00,
2013-07-10 02:36:00,78.5,71.5,30.05,North,0,0.0,0.0,79,0.00,,,0.00,WUHU216HW,2013-07-10 06:36:00,
2013-07-10 02:41:00,78.5,71.5,30.05,North,0,0.0,0.0,79,0.00,,,0.00,WUHU216HW,2013-07-10 06:41:00,
2013-07-10 02:46:00,78.5,71.5,30.05,North,0,0.0,0.0,79,0.00,,,0.00,WUHU216HW,2013-07-10 06:46:00,
2013-07-10 02:51:00,78.5,71.5,30.05,North,0,0.0,0.0,79,0.00,,,0.00,WUHU216HW,2013-07-10 06:51:00,
2013-07-10 02:56:00,78.5,71.5,30.05,North,0,0.0,0.0,79,0.00,,,0.00,WUHU216HW,2013-07-10 06:56:00,
2013-07-10 03:01:00,78.3,71.3,30.05,North,0,0.0,0.0,79,0.00,,,0.00,WUHU216HW,2013-07-10 07:01:00,
2013-07-10 03:06:00,78.3,71.6,30.04,North,0,0.0,0.0,80,0.00,,,0.00,WUHU216HW,2013-07-10 07:06:00,
2013-07-10 03:11:00,78.3,71.6,30.04,North,0,0.0,0.0,80,0.00,,,0.00,WUHU216HW,2013-07-10 07:11:00,
2013-07-10 03:16:00,78.3,71.6,30.04,North,0,0.0,0.0,80,0.00,,,0.00,WUHU216HW,2013-07-10 07:16:00,
2013-07-10 03:21:00,78.1,71.5,30.04,North,0,0.0,0.0,80,0.00,,,0.00,WUHU216HW,2013-07-10 07:21:00,
2013-07-10 03:26:00,78.1,71.5,30.04,North,0,0.0,0.0,80,0.00,,,0.00,WUHU216HW,2013-07-10 07:26:00,
2013-07-10 03:31:00,78.1,71.5,30.04,North,0,0.0,0.0,80,0.00,,,0.00,WUHU216HW,2013-07-10 07:31:00,
2013-07-10 03:36:00,78.1,71.5,30.04,North,0,0.0,0.0,80,0.00,,,0.00,WUHU216HW,2013-07-10 07:36:00,
2013-07-10 03:41:00,78.1,71.5,30.04,North,0,0.0,0.0,80,0.00,,,0.00,WUHU216HW,2013-07-10 07:41:00,
2013-07-10 03:46:00,78.1,71.8,30.04,North,0,0.0,0.0,81,0.00,,,0.00,WUHU216HW,2013-07-10 07:46:00,
2013-07-10 03:51:00,77.9,71.6,30.04,North,0,0.0,0.0,81,0.00,,,0.00,WUHU216HW,2013-07-10 07:51:00,
2013-07-10 03:56:00,77.8,71.5,30.04,North,0,0.0,0.0,81,0.00,,,0.00,WUHU216HW,2013-07-10 07:56:00,
2013-07-10 04:01:00,77.8,71.5,30.04,North,0,0.0,0.0,81,0.00,,,0.00,WUHU216HW,2013-07-10 08:01:00,
2013-07-10 04:06:00,77.8,71.5,30.05,North,0,0.0,0.0,81,0.00,,,0.00,WUHU216HW,2013-07-10 08:06:00,
2013-07-10 04:11:00,77.6,71.3,30.05,North,0,0.0,0.0,81,0.00,,,0.00,WUHU216HW,2013-07-10 08:11:00,
2013-07-10 04:16:00,77.6,71.3,30.04,North,0,0.0,0.0,81,0.00,,,0.00,WUHU216HW,2013-07-10 08:16:00,
2013-07-10 04:21:00,77.6,71.3,30.04,North,0,0.0,0.0,81,0.00,,,0.00,WUHU216HW,2013-07-10 08:21:00,
2013-07-10 04:26:00,77.4,71.1,30.04,North,0,0.0,0.0,81,0.00,,,0.00,WUHU216HW,2013-07-10 08:26:00,
2013-07-10 04:31:00,77.4,71.1,30.04,North,0,0.0,0.0,81,0.00,,,0.00,WUHU216HW,2013-07-10 08:31:00,
2013-07-10 04:36:00,77.4,71.1,30.04,North,0,0.0,0.0,81,0.00,,,0.00,WUHU216HW,2013-07-10 08:36:00,
2013-07-10 04:41:00,77.4,71.1,30.04,North,0,0.0,0.0,81,0.00,,,0.00,WUHU216HW,2013-07-10 08:41:00,
2013-07-10 04:46:00,77.4,71.1,30.04,North,0,0.0,0.0,81,0.00,,,0.00,WUHU216HW,2013-07-10 08:46:00,
2013-07-10 04:51:00,77.4,71.5,30.04,North,0,0.0,0.0,82,0.00,,,0.00,WUHU216HW,2013-07-10 08:51:00,
2013-07-10 04:56:00,77.2,71.3,30.03,North,0,0.0,0.0,82,0.00,,,0.00,WUHU216HW,2013-07-10 08:56:00,
2013-07-10 05:01:00,77.2,71.3,30.03,North,0,0.0,0.0,82,0.00,,,0.00,WUHU216HW,2013-07-10 09:01:00,
2013-07-10 05:06:00,77.2,71.3,30.03,North,0,0.0,0.0,82,0.00,,,0.00,WUHU216HW,2013-07-10 09:06:00,
2013-07-10 05:11:00,77.2,71.3,30.04,North,0,0.0,0.0,82,0.00,,,0.00,WUHU216HW,2013-07-10 09:11:00,
2013-07-10 05:16:00,77.0,71.1,30.04,North,0,0.0,0.0,82,0.00,,,0.00,WUHU216HW,2013-07-10 09:16:00,
2013-07-10 05:21:00,77.0,71.1,30.03,North,0,0.0,0.0,82,0.00,,,0.00,WUHU216HW,2013-07-10 09:21:00,
2013-07-10 05:26:00,77.0,71.5,30.03,North,0,0.0,0.0,83,0.00,,,0.00,WUHU216HW,2013-07-10 09:26:00,
2013-07-10 05:31:00,77.0,71.5,30.03,North,0,0.0,0.0,83,0.00,,,0.00,WUHU216HW,2013-07-10 09:31:00,
2013-07-10 05:36:00,77.0,71.5,30.03,North,0,0.0,0.0,83,0.00,,,0.00,WUHU216HW,2013-07-10 09:36:00,
2013-07-10 05:41:00,77.0,71.5,30.03,North,0,0.0,0.0,83,0.00,,,0.00,WUHU216HW,2013-07-10 09:41:00,
2013-07-10 05:46:00,76.9,71.3,30.03,North,0,0.0,0.0,83,0.00,,,0.00,WUHU216HW,2013-07-10 09:46:00,
2013-07-10 05:51:00,77.0,71.5,30.03,North,0,0.0,0.0,83,0.00,,,0.00,WUHU216HW,2013-07-10 09:51:00,
2013-07-10 05:56:00,77.0,71.5,30.03,North,0,0.0,0.0,83,0.00,,,0.00,WUHU216HW,2013-07-10 09:56:00,
2013-07-10 06:01:00,77.0,71.5,30.03,North,0,0.0,0.0,83,0.00,,,0.00,WUHU216HW,2013-07-10 10:01:00,
2013-07-10 06:06:00,77.0,71.5,30.03,North,0,0.0,0.0,83,0.00,,,0.00,WUHU216HW,2013-07-10 10:06:00,
2013-07-10 06:07:00,77.0,71.5,30.03,North,0,0.0,0.0,83,0.00,,,0.00,WUHU216HW,2013-07-10 10:07:00,
2013-07-10 06:12:00,77.0,71.5,30.03,North,0,0.0,0.0,83,0.00,,,0.00,WUHU216HW,2013-07-10 10:12:00,
2013-07-10 06:17:00,77.0,71.5,30.03,North,0,0.0,0.0,83,0.00,,,0.00,WUHU216HW,2013-07-10 10:17:00,
2013-07-10 06:22:00,76.9,71.3,30.03,North,0,0.0,0.0,83,0.00,,,0.00,WUHU216HW,2013-07-10 10:22:00,
2013-07-10 06:27:00,76.9,71.3,30.03,North,0,0.0,0.0,83,0.00,,,0.00,WUHU216HW,2013-07-10 10:27:00,
2013-07-10 06:32:00,76.9,71.3,30.03,North,0,0.0,0.0,83,0.00,,,0.00,WUHU216HW,2013-07-10 10:32:00,
2013-07-10 06:37:00,76.7,71.1,30.03,North,0,0.0,0.0,83,0.00,,,0.00,WUHU216HW,2013-07-10 10:37:00,
2013-07-10 06:42:00,76.7,71.1,30.03,North,0,0.0,0.0,83,0.00,,,0.00,WUHU216HW,2013-07-10 10:42:00,
2013-07-10 06:47:00,76.7,71.5,30.03,North,0,0.0,0.0,84,0.00,,,0.00,WUHU216HW,2013-07-10 10:47:00,
2013-07-10 06:52:00,76.7,71.5,30.03,North,0,0.0,0.0,84,0.00,,,0.00,WUHU216HW,2013-07-10 10:52:00,
2013-07-10 06:57:00,76.9,71.6,30.03,North,0,0.0,0.0,84,0.00,,,0.00,WUHU216HW,2013-07-10 10:57:00,
2013-07-10 07:02:00,76.7,70.7,30.03,North,0,0.0,0.0,82,0.00,,,0.00,WUHU216HW,2013-07-10 11:02:00,
2013-07-10 07:07:00,76.7,71.1,30.04,North,0,0.0,0.0,83,0.00,,,0.00,WUHU216HW,2013-07-10 11:07:00,
2013-07-10 07:12:00,76.7,71.1,30.04,North,0,0.0,0.0,83,0.00,,,0.00,WUHU216HW,2013-07-10 11:12:00,
2013-07-10 07:17:00,76.7,71.5,30.04,North,0,0.0,0.0,84,0.00,,,0.00,WUHU216HW,2013-07-10 11:17:00,
2013-07-10 07:22:00,76.7,71.5,30.04,North,0,0.0,0.0,84,0.00,,,0.00,WUHU216HW,2013-07-10 11:22:00,
2013-07-10 07:27:00,76.9,71.6,30.04,North,0,0.0,0.0,84,0.00,,,0.00,WUHU216HW,2013-07-10 11:27:00,
2013-07-10 07:32:00,76.9,71.6,30.04,North,0,0.0,0.0,84,0.00,,,0.00,WUHU216HW,2013-07-10 11:32:00,
2013-07-10 07:37:00,76.9,71.6,30.04,North,0,0.0,0.0,84,0.00,,,0.00,WUHU216HW,2013-07-10 11:37:00,
2013-07-10 07:42:00,77.0,72.2,30.04,North,0,0.0,0.0,85,0.00,,,0.00,WUHU216HW,2013-07-10 11:42:00,
2013-07-10 07:47:00,77.0,72.2,30.04,North,0,0.0,0.0,85,0.00,,,0.00,WUHU216HW,2013-07-10 11:47:00,
2013-07-10 07:52:00,77.0,72.2,30.04,North,0,0.0,0.0,85,0.00,,,0.00,WUHU216HW,2013-07-10 11:52:00,
2013-07-10 07:57:00,77.2,72.4,30.04,North,0,0.0,0.0,85,0.00,,,0.00,WUHU216HW,2013-07-10 11:57:00,
2013-07-10 08:02:00,77.2,72.4,30.04,North,0,0.0,0.0,85,0.00,,,0.00,WUHU216HW,2013-07-10 12:02:00,
2013-07-10 08:07:00,77.4,72.5,30.05,North,0,0.0,0.0,85,0.00,,,0.00,WUHU216HW,2013-07-10 12:07:00,
2013-07-10 08:12:00,77.4,72.5,30.05,North,0,0.0,0.0,85,0.00,,,0.00,WUHU216HW,2013-07-10 12:12:00,
2013-07-10 08:17:00,77.4,72.5,30.05,North,0,0.0,0.0,85,0.00,,,0.00,WUHU216HW,2013-07-10 12:17:00,
2013-07-10 08:22:00,77.6,72.7,30.05,North,0,0.0,0.0,85,0.00,,,0.00,WUHU216HW,2013-07-10 12:22:00,
2013-07-10 08:27:00,77.8,72.9,30.05,North,0,0.0,0.0,85,0.00,,,0.00,WUHU216HW,2013-07-10 12:27:00,
2013-07-10 08:32:00,77.9,73.1,30.05,North,0,0.0,0.0,85,0.00,,,0.00,WUHU216HW,2013-07-10 12:32:00,
2013-07-10 08:37:00,78.1,73.3,30.05,North,0,0.0,0.0,85,0.00,,,0.00,WUHU216HW,2013-07-10 12:37:00,
2013-07-10 08:42:00,78.1,72.9,30.05,North,0,0.0,0.0,84,0.00,,,0.00,WUHU216HW,2013-07-10 12:42:00,
2013-07-10 08:47:00,78.5,73.3,30.05,North,0,0.0,0.0,84,0.00,,,0.00,WUHU216HW,2013-07-10 12:47:00,
2013-07-10 08:52:00,78.5,73.3,30.05,North,0,0.0,0.0,84,0.00,,,0.00,WUHU216HW,2013-07-10 12:52:00,
2013-07-10 08:57:00,78.7,73.4,30.05,North,0,0.0,0.0,84,0.00,,,0.00,WUHU216HW,2013-07-10 12:57:00,
2013-07-10 09:02:00,78.7,73.1,30.05,North,0,0.0,0.0,83,0.00,,,0.00,WUHU216HW,2013-07-10 13:02:00,
2013-07-10 09:07:00,78.8,73.3,30.06,North,0,0.0,0.0,83,0.00,,,0.00,WUHU216HW,2013-07-10 13:07:00,
2013-07-10 09:12:00,78.8,73.3,30.06,North,0,0.0,0.0,83,0.00,,,0.00,WUHU216HW,2013-07-10 13:12:00,
2013-07-10 09:17:00,78.8,73.3,30.06,North,0,0.0,0.0,83,0.00,,,0.00,WUHU216HW,2013-07-10 13:17:00,
2013-07-10 09:22:00,78.8,72.9,30.06,North,0,0.0,0.0,82,0.00,,,0.00,WUHU216HW,2013-07-10 13:22:00,
2013-07-10 09:27:00,79.2,73.3,30.06,North,0,0.0,0.0,82,0.00,,,0.00,WUHU216HW,2013-07-10 13:27:00,
2013-07-10 09:32:00,79.2,73.3,30.06,North,0,0.0,0.0,82,0.00,,,0.00,WUHU216HW,2013-07-10 13:32:00,
2013-07-10 09:37:00,79.4,73.5,30.06,North,0,0.0,0.0,82,0.00,,,0.00,WUHU216HW,2013-07-10 13:37:00,
2013-07-10 09:42:00,79.6,73.6,30.06,North,0,0.0,0.0,82,0.00,,,0.00,WUHU216HW,2013-07-10 13:42:00,
2013-07-10 09:47:00,79.9,73.6,30.05,North,0,0.0,0.0,81,0.00,,,0.00,WUHU216HW,2013-07-10 13:47:00,
2013-07-10 09:52:00,80.3,74.0,30.05,North,0,0.0,0.0,81,0.00,,,0.00,WUHU216HW,2013-07-10 13:52:00,
2013-07-10 09:57:00,80.8,74.2,30.05,North,0,0.0,0.0,80,0.00,,,0.00,WUHU216HW,2013-07-10 13:57:00,
2013-07-10 10:02:00,81.0,74.0,30.06,North,0,0.0,0.0,79,0.00,,,0.00,WUHU216HW,2013-07-10 14:02:00,
2013-07-10 10:07:00,81.4,73.9,30.05,North,0,0.0,0.0,78,0.00,,,0.00,WUHU216HW,2013-07-10 14:07:00,
2013-07-10 10:12:00,81.7,74.6,30.05,North,0,0.0,0.0,79,0.00,,,0.00,WUHU216HW,2013-07-10 14:12:00,
2013-07-10 10:17:00,82.3,74.8,30.05,North,0,0.0,0.0,78,0.00,,,0.00,WUHU216HW,2013-07-10 14:17:00,
2013-07-10 10:22:00,82.8,74.9,30.05,North,0,0.0,0.0,77,0.00,,,0.00,WUHU216HW,2013-07-10 14:22:00,
2013-07-10 10:27:00,83.3,75.3,30.05,North,0,0.0,0.0,77,0.00,,,0.00,WUHU216HW,2013-07-10 14:27:00,
2013-07-10 10:32:00,83.7,75.3,30.06,North,0,0.0,0.0,76,0.00,,,0.00,WUHU216HW,2013-07-10 14:32:00,
2013-07-10 10:37:00,84.2,75.4,30.05,North,0,0.0,0.0,75,0.00,,,0.00,WUHU216HW,2013-07-10 14:37:00,
2013-07-10 10:42:00,84.6,74.6,30.06,North,0,0.0,0.0,72,0.00,,,0.00,WUHU216HW,2013-07-10 14:42:00,
2013-07-10 10:47:00,85.1,75.2,30.06,North,0,0.0,0.0,72,0.00,,,0.00,WUHU216HW,2013-07-10 14:47:00,
2013-07-10 10:52:00,85.7,75.7,30.05,North,0,0.0,0.0,72,0.00,,,0.00,WUHU216HW,2013-07-10 14:52:00,
2013-07-10 10:57:00,86.0,75.6,30.06,North,0,0.0,0.0,71,0.00,,,0.00,WUHU216HW,2013-07-10 14:57:00,
2013-07-10 11:02:00,86.4,75.6,30.06,North,0,0.0,0.0,70,0.00,,,0.00,WUHU216HW,2013-07-10 15:02:00,
2013-07-10 11:07:00,86.8,75.4,30.05,North,0,0.0,0.0,69,0.00,,,0.00,WUHU216HW,2013-07-10 15:07:00,
2013-07-10 11:12:00,86.8,75.0,30.05,North,0,0.0,0.0,68,0.00,,,0.00,WUHU216HW,2013-07-10 15:12:00,
2013-07-10 11:17:00,86.8,74.5,30.05,North,0,0.0,0.0,67,0.00,,,0.00,WUHU216HW,2013-07-10 15:17:00,
2013-07-10 11:22:00,86.4,74.2,30.05,North,0,0.0,0.0,67,0.00,,,0.00,WUHU216HW,2013-07-10 15:22:00,
2013-07-10 11:27:00,86.0,73.8,30.05,North,0,0.0,0.0,67,0.00,,,0.00,WUHU216HW,2013-07-10 15:27:00,
2013-07-10 11:32:00,85.9,73.6,30.05,North,0,0.0,0.0,67,0.00,,,0.00,WUHU216HW,2013-07-10 15:32:00,
2013-07-10 11:37:00,85.9,73.6,30.05,North,0,0.0,0.0,67,0.00,,,0.00,WUHU216HW,2013-07-10 15:37:00,
2013-07-10 11:42:00,85.7,73.5,30.05,North,0,0.0,0.0,67,0.00,,,0.00,WUHU216HW,2013-07-10 15:42:00,
2013-07-10 11:47:00,85.7,73.5,30.05,North,0,0.0,0.0,67,0.00,,,0.00,WUHU216HW,2013-07-10 15:47:00,
2013-07-10 11:52:00,85.9,73.6,30.04,North,0,0.0,0.0,67,0.00,,,0.00,WUHU216HW,2013-07-10 15:52:00,
2013-07-10 11:57:00,86.0,73.8,30.04,North,0,0.0,0.0,67,0.00,,,0.00,WUHU216HW,2013-07-10 15:57:00,
2013-07-10 12:02:00,86.0,73.8,30.04,North,0,0.0,0.0,67,0.00,,,0.00,WUHU216HW,2013-07-10 16:02:00,
2013-07-10 12:07:00,86.2,74.0,30.04,North,0,0.0,0.0,67,0.00,,,0.00,WUHU216HW,2013-07-10 16:07:00,
2013-07-10 12:12:00,86.2,74.0,30.04,North,0,0.0,0.0,67,0.00,,,0.00,WUHU216HW,2013-07-10 16:12:00,
2013-07-10 12:17:00,86.4,74.2,30.04,North,0,0.0,0.0,67,0.00,,,0.00,WUHU216HW,2013-07-10 16:17:00,
2013-07-10 12:22:00,86.9,74.7,30.04,North,0,0.0,0.0,67,0.00,,,0.00,WUHU216HW,2013-07-10 16:22:00,
2013-07-10 12:27:00,87.3,74.5,30.05,North,0,0.0,0.0,66,0.00,,,0.00,WUHU216HW,2013-07-10 16:27:00,
2013-07-10 12:32:00,87.5,74.3,30.05,North,0,0.0,0.0,65,0.00,,,0.00,WUHU216HW,2013-07-10 16:32:00,
2013-07-10 12:37:00,87.7,74.4,30.05,North,0,0.0,0.0,65,0.00,,,0.00,WUHU216HW,2013-07-10 16:37:00,
2013-07-10 12:42:00,87.5,73.8,30.05,North,0,0.0,0.0,64,0.00,,,0.00,WUHU216HW,2013-07-10 16:42:00,
2013-07-10 12:47:00,87.3,74.1,30.04,North,0,0.0,0.0,65,0.00,,,0.00,WUHU216HW,2013-07-10 16:47:00,
2013-07-10 12:52:00,87.1,73.9,30.05,North,0,0.0,0.0,65,0.00,,,0.00,WUHU216HW,2013-07-10 16:52:00,
2013-07-10 12:57:00,87.1,73.4,30.04,North,0,0.0,0.0,64,0.00,,,0.00,WUHU216HW,2013-07-10 16:57:00,
2013-07-10 13:02:00,87.3,73.6,30.04,North,0,0.0,0.0,64,0.00,,,0.00,WUHU216HW,2013-07-10 17:02:00,
2013-07-10 13:07:00,87.7,74.0,30.03,North,0,0.0,0.0,64,0.00,,,0.00,WUHU216HW,2013-07-10 17:07:00,
2013-07-10 13:12:00,87.8,73.7,30.03,North,0,0.0,0.0,63,0.00,,,0.00,WUHU216HW,2013-07-10 17:12:00,
2013-07-10 13:17:00,88.2,74.1,30.03,North,0,0.0,0.0,63,0.00,,,0.00,WUHU216HW,2013-07-10 17:17:00,
2013-07-10 13:22:00,88.4,73.8,30.03,North,0,0.0,0.0,62,0.00,,,0.00,WUHU216HW,2013-07-10 17:22:00,
2013-07-10 13:27:00,88.6,73.9,30.03,North,0,0.0,0.0,62,0.00,,,0.00,WUHU216HW,2013-07-10 17:27:00,
2013-07-10 13:32:00,88.6,73.4,30.03,North,0,0.0,0.0,61,0.00,,,0.00,WUHU216HW,2013-07-10 17:32:00,
2013-07-10 13:37:00,88.4,73.3,30.02,North,0,0.0,0.0,61,0.00,,,0.00,WUHU216HW,2013-07-10 17:37:00,
2013-07-10 13:42:00,88.4,73.3,30.02,North,0,0.0,0.0,61,0.00,,,0.00,WUHU216HW,2013-07-10 17:42:00,
2013-07-10 13:47:00,88.6,73.0,30.02,North,0,0.0,0.0,60,0.00,,,0.00,WUHU216HW,2013-07-10 17:47:00,
2013-07-10 13:52:00,88.6,73.4,30.02,North,0,0.0,0.0,61,0.00,,,0.00,WUHU216HW,2013-07-10 17:52:00,
2013-07-10 13:57:00,88.7,73.2,30.01,North,0,0.0,0.0,60,0.00,,,0.00,WUHU216HW,2013-07-10 17:57:00,
2013-07-10 14:02:00,89.1,73.0,30.01,North,0,0.0,0.0,59,0.00,,,0.00,WUHU216HW,2013-07-10 18:02:00,
2013-07-10 14:07:00,89.3,73.6,30.00,North,0,0.0,0.0,60,0.00,,,0.00,WUHU216HW,2013-07-10 18:07:00,
2013-07-10 14:12:00,89.3,73.6,30.00,North,0,0.0,0.0,60,0.00,,,0.00,WUHU216HW,2013-07-10 18:12:00,
2013-07-10 14:17:00,89.3,73.6,30.00,North,0,0.0,0.0,60,0.00,,,0.00,WUHU216HW,2013-07-10 18:17:00,
2013-07-10 14:22:00,88.9,73.4,30.00,North,0,0.0,0.0,60,0.00,,,0.00,WUHU216HW,2013-07-10 18:22:00,
2013-07-10 14:27:00,88.9,72.8,29.99,North,0,0.0,0.0,59,0.00,,,0.00,WUHU216HW,2013-07-10 18:27:00,
2013-07-10 14:32:00,88.9,72.8,29.99,North,0,0.0,0.0,59,0.00,,,0.00,WUHU216HW,2013-07-10 18:32:00,
2013-07-10 14:37:00,88.9,72.8,29.99,North,0,0.0,0.0,59,0.00,,,0.00,WUHU216HW,2013-07-10 18:37:00,
2013-07-10 14:42:00,89.1,73.5,29.99,North,0,0.0,0.0,60,0.00,,,0.00,WUHU216HW,2013-07-10 18:42:00,
2013-07-10 14:47:00,89.5,73.3,29.98,North,0,0.0,0.0,59,0.00,,,0.00,WUHU216HW,2013-07-10 18:47:00,
2013-07-10 14:52:00,89.6,72.9,29.98,North,0,0.0,0.0,58,0.00,,,0.00,WUHU216HW,2013-07-10 18:52:00,
2013-07-10 14:57:00,89.6,72.9,29.98,North,0,0.0,0.0,58,0.00,,,0.00,WUHU216HW,2013-07-10 18:57:00,
2013-07-10 15:02:00,89.6,72.4,29.98,North,0,0.0,0.0,57,0.00,,,0.00,WUHU216HW,2013-07-10 19:02:00,
2013-07-10 15:07:00,89.6,71.8,29.98,North,0,0.0,0.0,56,0.00,,,0.00,WUHU216HW,2013-07-10 19:07:00,
2013-07-10 15:12:00,89.6,71.3,29.98,North,0,0.0,0.0,55,0.00,,,0.00,WUHU216HW,2013-07-10 19:12:00,
2013-07-10 15:17:00,89.6,72.4,29.98,North,0,0.0,0.0,57,0.00,,,0.00,WUHU216HW,2013-07-10 19:17:00,
2013-07-10 15:22:00,89.5,72.2,29.98,North,0,0.0,0.0,57,0.00,,,0.00,WUHU216HW,2013-07-10 19:22:00,
2013-07-10 15:27:00,88.9,72.8,29.98,North,0,0.0,0.0,59,0.00,,,0.00,WUHU216HW,2013-07-10 19:27:00,
2013-07-10 15:32:00,88.6,72.5,29.98,North,0,0.0,0.0,59,0.00,,,0.00,WUHU216HW,2013-07-10 19:32:00,
2013-07-10 15:37:00,88.2,73.2,29.98,North,0,0.0,0.0,61,0.00,,,0.00,WUHU216HW,2013-07-10 19:37:00,
2013-07-10 15:42:00,87.8,72.8,29.97,North,0,0.0,0.0,61,0.00,,,0.00,WUHU216HW,2013-07-10 19:42:00,
2013-07-10 15:47:00,87.7,72.6,29.97,North,0,0.0,0.0,61,0.00,,,0.00,WUHU216HW,2013-07-10 19:47:00,
2013-07-10 15:52:00,87.7,73.1,29.97,North,0,0.0,0.0,62,0.00,,,0.00,WUHU216HW,2013-07-10 19:52:00,
2013-07-10 15:57:00,87.7,73.1,29.97,North,0,0.0,0.0,62,0.00,,,0.00,WUHU216HW,2013-07-10 19:57:00,
2013-07-10 16:02:00,87.7,73.1,29.97,North,0,0.0,0.0,62,0.00,,,0.00,WUHU216HW,2013-07-10 20:02:00,
2013-07-10 16:07:00,87.8,73.3,29.97,North,0,0.0,0.0,62,0.00,,,0.00,WUHU216HW,2013-07-10 20:07:00,
2013-07-10 16:12:00,87.7,73.1,29.96,North,0,0.0,0.0,62,0.00,,,0.00,WUHU216HW,2013-07-10 20:12:00,
2013-07-10 16:17:00,87.7,73.1,29.96,North,0,0.0,0.0,62,0.00,,,0.00,WUHU216HW,2013-07-10 20:17:00,
2013-07-10 16:22:00,87.5,72.9,29.96,North,0,0.0,0.0,62,0.00,,,0.00,WUHU216HW,2013-07-10 20:22:00,
2013-07-10 16:27:00,87.5,72.9,29.96,North,0,0.0,0.0,62,0.00,,,0.00,WUHU216HW,2013-07-10 20:27:00,
2013-07-10 16:32:00,87.5,72.9,29.96,North,0,0.0,0.0,62,0.00,,,0.00,WUHU216HW,2013-07-10 20:32:00,
2013-07-10 16:37:00,87.5,72.5,29.96,North,0,0.0,0.0,61,0.00,,,0.00,WUHU216HW,2013-07-10 20:37:00,
2013-07-10 16:42:00,87.5,72.9,29.96,North,0,0.0,0.0,62,0.00,,,0.00,WUHU216HW,2013-07-10 20:42:00,
2013-07-10 16:47:00,87.3,72.7,29.95,North,0,0.0,0.0,62,0.00,,,0.00,WUHU216HW,2013-07-10 20:47:00,
2013-07-10 16:52:00,87.1,72.5,29.95,North,0,0.0,0.0,62,0.00,,,0.00,WUHU216HW,2013-07-10 20:52:00,
2013-07-10 16:57:00,87.1,72.5,29.95,North,0,0.0,0.0,62,0.00,,,0.00,WUHU216HW,2013-07-10 20:57:00,
2013-07-10 17:02:00,86.9,72.8,29.95,North,0,0.0,0.0,63,0.00,,,0.00,WUHU216HW,2013-07-10 21:02:00,
2013-07-10 17:07:00,86.8,72.6,29.95,North,0,0.0,0.0,63,0.00,,,0.00,WUHU216HW,2013-07-10 21:07:00,
2013-07-10 17:12:00,86.8,73.1,29.95,North,0,0.0,0.0,64,0.00,,,0.00,WUHU216HW,2013-07-10 21:12:00,
2013-07-10 17:17:00,86.9,73.3,29.94,North,0,0.0,0.0,64,0.00,,,0.00,WUHU216HW,2013-07-10 21:17:00,
2013-07-10 17:22:00,86.8,73.1,29.95,North,0,0.0,0.0,64,0.00,,,0.00,WUHU216HW,2013-07-10 21:22:00,
2013-07-10 17:27:00,86.8,73.1,29.94,North,0,0.0,0.0,64,0.00,,,0.00,WUHU216HW,2013-07-10 21:27:00,
2013-07-10 17:32:00,86.6,73.0,29.94,North,0,0.0,0.0,64,0.00,,,0.00,WUHU216HW,2013-07-10 21:32:00,
2013-07-10 17:37:00,86.4,72.8,29.94,North,0,0.0,0.0,64,0.00,,,0.00,WUHU216HW,2013-07-10 21:37:00,
2013-07-10 17:42:00,86.4,72.8,29.95,North,0,0.0,0.0,64,0.00,,,0.00,WUHU216HW,2013-07-10 21:42:00,
2013-07-10 17:47:00,86.4,73.3,29.94,North,0,0.0,0.0,65,0.00,,,0.00,WUHU216HW,2013-07-10 21:47:00,
2013-07-10 17:52:00,86.4,73.3,29.94,North,0,0.0,0.0,65,0.00,,,0.00,WUHU216HW,2013-07-10 21:52:00,
2013-07-10 17:57:00,86.4,73.3,29.94,North,0,0.0,0.0,65,0.00,,,0.00,WUHU216HW,2013-07-10 21:57:00,
2013-07-10 18:02:00,86.4,72.8,29.95,North,0,0.0,0.0,64,0.00,,,0.00,WUHU216HW,2013-07-10 22:02:00,
2013-07-10 18:07:00,86.4,72.8,29.95,North,0,0.0,0.0,64,0.00,,,0.00,WUHU216HW,2013-07-10 22:07:00,
2013-07-10 18:12:00,86.4,72.3,29.94,North,0,0.0,0.0,63,0.00,,,0.00,WUHU216HW,2013-07-10 22:12:00,
2013-07-10 18:17:00,86.4,72.3,29.94,North,0,0.0,0.0,63,0.00,,,0.00,WUHU216HW,2013-07-10 22:17:00,
2013-07-10 18:22:00,86.4,72.3,29.94,North,0,0.0,0.0,63,0.00,,,0.00,WUHU216HW,2013-07-10 22:22:00,
2013-07-10 18:27:00,86.4,71.8,29.94,North,0,0.0,0.0,62,0.00,,,0.00,WUHU216HW,2013-07-10 22:27:00,
2013-07-10 18:32:00,86.4,71.8,29.95,North,0,0.0,0.0,62,0.00,,,0.00,WUHU216HW,2013-07-10 22:32:00,
2013-07-10 18:37:00,86.4,71.8,29.95,North,0,0.0,0.0,62,0.00,,,0.00,WUHU216HW,2013-07-10 22:37:00,
2013-07-10 18:42:00,86.4,71.4,29.95,North,0,0.0,0.0,61,0.00,,,0.00,WUHU216HW,2013-07-10 22:42:00,
2013-07-10 18:47:00,86.4,71.4,29.95,North,0,0.0,0.0,61,0.00,,,0.00,WUHU216HW,2013-07-10 22:47:00,
2013-07-10 18:52:00,86.6,71.1,29.95,North,0,0.0,0.0,60,0.00,,,0.00,WUHU216HW,2013-07-10 22:52:00,
2013-07-10 18:57:00,86.6,71.1,29.94,North,0,0.0,0.0,60,0.00,,,0.00,WUHU216HW,2013-07-10 22:57:00,
2013-07-10 19:02:00,86.6,71.1,29.94,North,0,0.0,0.0,60,0.00,,,0.00,WUHU216HW,2013-07-10 23:02:00,
2013-07-10 19:07:00,86.4,70.9,29.94,North,0,0.0,0.0,60,0.00,,,0.00,WUHU216HW,2013-07-10 23:07:00,
2013-07-10 19:12:00,86.4,71.4,29.94,North,0,0.0,0.0,61,0.00,,,0.00,WUHU216HW,2013-07-10 23:12:00,
2013-07-10 19:17:00,86.4,71.4,29.94,North,0,0.0,0.0,61,0.00,,,0.00,WUHU216HW,2013-07-10 23:17:00,
2013-07-10 19:22:00,86.4,71.8,29.94,North,0,0.0,0.0,62,0.00,,,0.00,WUHU216HW,2013-07-10 23:22:00,
2013-07-10 19:27:00,86.2,71.6,29.94,North,0,0.0,0.0,62,0.00,,,0.00,WUHU216HW,2013-07-10 23:27:00,
2013-07-10 19:32:00,86.0,71.5,29.94,North,0,0.0,0.0,62,0.00,,,0.00,WUHU216HW,2013-07-10 23:32:00,
2013-07-10 19:37:00,86.0,71.5,29.95,North,0,0.0,0.0,62,0.00,,,0.00,WUHU216HW,2013-07-10 23:37:00,
2013-07-10 19:42:00,86.0,71.5,29.94,North,0,0.0,0.0,62,0.00,,,0.00,WUHU216HW,2013-07-10 23:42:00,
2013-07-10 19:47:00,86.0,71.0,29.94,North,0,0.0,0.0,61,0.00,,,0.00,WUHU216HW,2013-07-10 23:47:00,
2013-07-10 19:52:00,85.9,70.4,29.94,North,0,0.0,0.0,60,0.00,,,0.00,WUHU216HW,2013-07-10 23:52:00,
2013-07-10 19:57:00,85.7,70.2,29.94,North,0,0.0,0.0,60,0.00,,,0.00,WUHU216HW,2013-07-10 23:57:00,
2013-07-10 20:02:00,85.7,70.8,29.94,North,0,0.0,0.0,61,0.00,,,0.00,WUHU216HW,2013-07-11 00:02:00,
2013-07-10 20:07:00,85.3,71.3,29.94,North,0,0.0,0.0,63,0.00,,,0.00,WUHU216HW,2013-07-11 00:07:00,
2013-07-10 20:12:00,85.0,71.9,29.94,North,0,0.0,0.0,65,0.00,,,0.00,WUHU216HW,2013-07-11 00:12:00,
2013-07-10 20:17:00,84.6,72.0,29.94,North,0,0.0,0.0,66,0.00,,,0.00,WUHU216HW,2013-07-11 00:17:00,
2013-07-10 20:22:00,84.4,72.3,29.95,North,0,0.0,0.0,67,0.00,,,0.00,WUHU216HW,2013-07-11 00:22:00,
2013-07-10 20:27:00,84.2,72.1,29.95,North,0,0.0,0.0,67,0.00,,,0.00,WUHU216HW,2013-07-11 00:27:00,
2013-07-10 20:32:00,83.9,71.7,29.95,North,0,0.0,0.0,67,0.00,,,0.00,WUHU216HW,2013-07-11 00:32:00,
2013-07-10 20:37:00,83.9,71.7,29.95,North,0,0.0,0.0,67,0.00,,,0.00,WUHU216HW,2013-07-11 00:37:00,
2013-07-10 20:42:00,83.7,71.6,29.95,North,0,0.0,0.0,67,0.00,,,0.00,WUHU216HW,2013-07-11 00:42:00,
2013-07-10 20:47:00,83.7,72.0,29.96,North,0,0.0,0.0,68,0.00,,,0.00,WUHU216HW,2013-07-11 00:47:00,
2013-07-10 20:52:00,83.7,72.0,29.96,North,0,0.0,0.0,68,0.00,,,0.00,WUHU216HW,2013-07-11 00:52:00,
2013-07-10 20:57:00,83.7,72.0,29.96,North,0,0.0,0.0,68,0.00,,,0.00,WUHU216HW,2013-07-11 00:57:00,
2013-07-10 21:02:00,83.7,72.5,29.96,North,0,0.0,0.0,69,0.00,,,0.00,WUHU216HW,2013-07-11 01:02:00,
2013-07-10 21:07:00,83.5,72.3,29.96,North,0,0.0,0.0,69,0.00,,,0.00,WUHU216HW,2013-07-11 01:07:00,
2013-07-10 21:12:00,83.3,72.1,29.97,North,0,0.0,0.0,69,0.00,,,0.00,WUHU216HW,2013-07-11 01:12:00,
2013-07-10 21:17:00,83.3,72.1,29.97,North,0,0.0,0.0,69,0.00,,,0.00,WUHU216HW,2013-07-11 01:17:00,
2013-07-10 21:22:00,83.2,71.9,29.98,North,0,0.0,0.0,69,0.00,,,0.00,WUHU216HW,2013-07-11 01:22:00,
2013-07-10 21:27:00,83.2,71.5,29.98,North,0,0.0,0.0,68,0.00,,,0.00,WUHU216HW,2013-07-11 01:27:00,
2013-07-10 21:32:00,83.0,71.3,29.98,North,0,0.0,0.0,68,0.00,,,0.00,WUHU216HW,2013-07-11 01:32:00,
2013-07-10 21:37:00,83.0,71.3,29.99,North,0,0.0,0.0,68,0.00,,,0.00,WUHU216HW,2013-07-11 01:37:00,
2013-07-10 21:42:00,82.8,71.1,29.99,North,0,0.0,0.0,68,0.00,,,0.00,WUHU216HW,2013-07-11 01:42:00,
2013-07-10 21:47:00,82.8,71.1,29.99,North,0,0.0,0.0,68,0.00,,,0.00,WUHU216HW,2013-07-11 01:47:00,
2013-07-10 21:52:00,82.6,70.9,29.99,North,0,0.0,0.0,68,0.00,,,0.00,WUHU216HW,2013-07-11 01:52:00,
2013-07-10 21:57:00,82.6,70.9,30.00,North,0,0.0,0.0,68,0.00,,,0.00,WUHU216HW,2013-07-11 01:57:00,
2013-07-10 22:02:00,82.6,71.4,29.99,North,0,0.0,0.0,69,0.00,,,0.00,WUHU216HW,2013-07-11 02:02:00,
2013-07-10 22:07:00,82.6,71.4,29.99,North,0,0.0,0.0,69,0.00,,,0.00,WUHU216HW,2013-07-11 02:07:00,
2013-07-10 22:12:00,82.4,71.2,29.99,North,0,0.0,0.0,69,0.00,,,0.00,WUHU216HW,2013-07-11 02:12:00,
2013-07-10 22:17:00,82.4,71.2,29.99,North,0,0.0,0.0,69,0.00,,,0.00,WUHU216HW,2013-07-11 02:17:00,
2013-07-10 22:22:00,82.3,70.6,29.99,North,0,0.0,0.0,68,0.00,,,0.00,WUHU216HW,2013-07-11 02:22:00,
2013-07-10 22:27:00,82.1,70.4,29.99,North,0,0.0,0.0,68,0.00,,,0.00,WUHU216HW,2013-07-11 02:27:00,
2013-07-10 22:32:00,82.1,70.4,29.99,North,0,0.0,0.0,68,0.00,,,0.00,WUHU216HW,2013-07-11 02:32:00,
2013-07-10 22:37:00,81.9,70.8,29.99,North,0,0.0,0.0,69,0.00,,,0.00,WUHU216HW,2013-07-11 02:37:00,
2013-07-10 22:42:00,81.9,70.8,29.99,North,0,0.0,0.0,69,0.00,,,0.00,WUHU216HW,2013-07-11 02:42:00,
2013-07-10 22:47:00,81.7,70.6,29.99,North,0,0.0,0.0,69,0.00,,,0.00,WUHU216HW,2013-07-11 02:47:00,
2013-07-10 22:52:00,81.7,70.6,29.99,North,0,0.0,0.0,69,0.00,,,0.00,WUHU216HW,2013-07-11 02:52:00,
2013-07-10 22:57:00,81.5,70.8,29.99,North,0,0.0,0.0,70,0.00,,,0.00,WUHU216HW,2013-07-11 02:57:00,
2013-07-10 23:02:00,81.5,70.8,29.99,North,0,0.0,0.0,70,0.00,,,0.00,WUHU216HW,2013-07-11 03:02:00,
2013-07-10 23:07:00,81.4,70.7,29.99,North,0,0.0,0.0,70,0.00,,,0.00,WUHU216HW,2013-07-11 03:07:00,
2013-07-10 23:12:00,81.4,70.7,30.00,North,0,0.0,0.0,70,0.00,,,0.00,WUHU216HW,2013-07-11 03:12:00,
2013-07-10 23:17:00,81.4,70.7,30.00,North,0,0.0,0.0,70,0.00,,,0.00,WUHU216HW,2013-07-11 03:17:00,
2013-07-10 23:22:00,81.4,70.7,30.01,North,0,0.0,0.0,70,0.00,,,0.00,WUHU216HW,2013-07-11 03:22:00,
2013-07-10 23:27:00,81.4,71.1,30.01,North,0,0.0,0.0,71,0.00,,,0.00,WUHU216HW,2013-07-11 03:27:00,
2013-07-10 23:32:00,81.4,71.1,30.01,North,0,0.0,0.0,71,0.00,,,0.00,WUHU216HW,2013-07-11 03:32:00,
2013-07-10 23:37:00,81.4,71.1,30.01,North,0,0.0,0.0,71,0.00,,,0.00,WUHU216HW,2013-07-11 03:37:00,
2013-07-10 23:42:00,81.2,70.9,30.02,North,0,0.0,0.0,71,0.00,,,0.00,WUHU216HW,2013-07-11 03:42:00,
2013-07-10 23:47:00,81.0,70.7,30.02,North,0,0.0,0.0,71,0.00,,,0.00,WUHU216HW,2013-07-11 03:47:00,
2013-07-10 23:52:00,81.0,70.7,30.01,North,0,0.0,0.0,71,0.00,,,0.00,WUHU216HW,2013-07-11 03:52:00,
2013-07-10 23:57:00,81.0,70.7,30.01,North,0,0.0,0.0,71,0.00,,,0.00,WUHU216HW,2013-07-11 03:57:00,